www.pogodaiklimat.ru

Погода и климат >> Архив погоды >> Узбекистан >> Учкудук


ПОГОДА в Учкудуке

  • Прогноз погоды в Учкудуке
  • Монитор погоды в Учкудуке

АРХИВ ПОГОДЫ в Учкудуке

Время (UTC), дата Ветер
(напр.,м/с)
 
Видим.   Явления Облачность Т
(С)
Тd
(С)
f
(%)
Тe
(С)
Тes
(С)
Комфортность P
(гПа)
Po
(гПа)
Тmin
(С)
Tmax
(С)
R
(мм)
R24
(мм)
S
(см)
12 10.08 С 5 4000 м 5/0
[Ci fib]
+35.6 +13.6 27 +36 +39 очень
жарко
1008.5 984.8
15 10.08 С 3 4000 м 3/0
[Ci ing]
+32.0 +12.3 30 +32 +32 жарко 1007.0 983.1 +36.1
18 10.08 СВ 5 н/о 3/0
[Ci fib]
+29.6 +11.8 33 +30 +30 жарко 1006.7 982.6 +36.1
21 10.08 С 3 н/о ясно +26.6 +10.4 36 +27 +27 жарко 1005.6 981.3
00 11.08 С 2 4000 м ясно +24.8 +9.7 38 +26 +26 жарко 1005.1 980.7
03 11.08 СВ 2 4000 м ясно +27.2 +10.3 35 +28 +31 жарко 1005.2 980.9
06 11.08 В 2 4000 м ясно +33.6 +13.1 29 +34 +49 очень
жарко
1004.9 981.1 +24.7
09 11.08 ЮЗ 3 4000 м ясно +36.4 +13.9 26 +37 +50 очень
жарко
1003.6 980.1
12 11.08 СЗ 4 4000 м ясно +37.0 +13.9 25 +37 +41 очень
жарко
1002.4 979.0
15 11.08 СЗ 2 4000 м 1/0
[Ci sp]
+33.4 +11.8 27 +33 +33 жарко 1002.6 978.9 +37.5
18 11.08 С 2 н/о ясно +29.2 +10.9 32 +30 +30 жарко 1002.6 978.6 +37.5
21 11.08 СВ 1 н/о ясно +24.7 +8.8 36 +25 +25 комфорт 1003.0 978.7
00 12.08 СВ 2 4000 м 3/0
[Ci fib]
+23.2 +8.1 38 +24 +24 комфорт 1003.4 978.9
03 12.08 СЗ 8 4000 м 6/0
[Ac trans]
+24.0 +8.2 36 +24 +25 комфорт 1005.0 980.5
06 12.08 З 5 4000 м 6/0
[Ac cast]
+29.0 +10.9 33 +30 +34 жарко 1007.5 983.3 +23.1
09 12.08 С 6 4000 м 3/0
[Ac cast]
+31.6 +11.9 30 +32 +37 жарко 1007.8 983.8
12 12.08 СЗ 4 4000 м ясно +31.2 +11.8 30 +32 +35 жарко 1007.5 983.5
15 12.08 З 3 4000 м ясно +28.0 +10.3 33 +28 +28 жарко 1008.0 983.8 +32.1
18 12.08 СЗ 5 н/о ясно +24.2 +9.0 38 +25 +25 комфорт 1009.3 984.7 +32.1
21 12.08 С 2 н/о ясно +23.2 +8.6 39 +24 +24 комфорт 1008.5 983.8
00 13.08 штиль 0 4000 м ясно +18.9 +5.9 43 +19 +19 1009.1 984.1
03 13.08 штиль 0 4000 м ясно +22.0 +7.8 40 +23 +28 комфорт 1010.3 985.5
06 13.08 З 4 4000 м ясно +25.8 +9.9 37 +27 +36 жарко 1010.1 985.6 +18.8
09 13.08 З 5 4000 м ясно +27.4 +10.4 35 +28 +36 жарко 1009.9 985.6
12 13.08 З 4 4000 м ясно +28.8 +11.3 34 +29 +33 жарко 1009.2 985.0
15 13.08 С 3 4000 м ясно +24.4 +9.2 38 +25 +25 комфорт 1010.4 985.8 +29.3
18 13.08 З 6 н/о ясно +19.4 +6.4 43 +20 +20 1011.7 986.7 +29.3
21 13.08 С 1 н/о ясно +18.2 +5.8 44 +19 +19 1011.0 985.8
00 14.08 З 1 4000 м ясно +15.0 +3.6 46 +16 +16 1011.1 985.7
03 14.08 В 2 4000 м 4/0
[Ac lent]
+19.0 +6.1 43 +20 +22 1011.7 986.6
06 14.08 В 3 4000 м 8/0
[Ac lent]
+24.4 +9.2 38 +25 +29 комфорт 1011.3 986.7 +14.9
09 14.08 ЮЗ 4 4000 м 8/8 1000 м
[Sc]
+28.0 +11.3 35 +29 +31 жарко 1009.3 985.0
12 14.08 ЮЗ 4 4000 м 8/8 1000 м
[Sc]
+28.2 +10.9 34 +29 +29 жарко 1007.3 983.1
15 14.08 СЗ 5 4000 м 3/0
[Ac lent]
+24.8 +8.9 36 +25 +25 комфорт 1008.7 984.2 +28.7
18 14.08 СЗ 4 н/о 8/0
[Ac lent]
+21.2 +7.0 40 +22 +22 комфорт 1010.4 985.5 +28.7
21 14.08 СЗ 1 н/о 3/0
[Ci fib]
+17.0 +4.3 43 +18 +18 1010.9 985.7
00 15.08 З 1 4000 м 3/0
[Ci fib]
+16.4 +4.0 44 +17 +17 1011.1 985.8
03 15.08 ЮЗ 2 4000 м 3/0
[Ci ing]
+18.4 +5.5 43 +19 +22 1010.7 985.6
06 15.08 З 3 4000 м 8/0
[Cc]
+25.8 +9.2 35 +26 +36 жарко 1012.4 987.9 +16.3
09 15.08 СЗ 2 4000 м 8/8 1000 м
[Cu med, cong]
+27.6 +10.4 34 +28 +31 жарко 1011.4 987.0
12 15.08 СЗ 5 4000 м 8/8 1000 м
[Cu med, cong]
+28.2 +10.4 33 +29 +29 жарко 1011.1 986.8
15 15.08 С 3 4000 м 3/0
[Ac cuf]
+25.6 +9.4 36 +26 +26 жарко 1012.1 987.5 +28.7
18 15.08 С 4 н/о ясно +22.0 +7.6 39 +23 +23 комфорт 1013.1 988.2 +28.7
21 15.08 СВ 2 н/о ясно +19.6 +6.4 42 +21 +21 комфорт 1013.3 988.2
00 16.08 СВ 2 4000 м ясно +16.5 +4.6 45 +17 +17 1013.7 988.4
03 16.08 С 2 4000 м ясно +20.8 +7.1 41 +23 +26 комфорт 1014.6 989.6
06 16.08 СВ 2 4000 м ясно +26.4 +10.2 36 +27 +41 жарко 1014.7 990.2 +16.4
09 16.08 С 4 4000 м ясно +29.0 +11.1 33 +30 +40 жарко 1013.3 989.0
15 16.08 С 3 4000 м ясно +28.4 +11.2 34 +29 +29 жарко 1012.6 988.3 +30.7

 

Местоположение метеостанции Учкудук (Навоийская область, Узбекистан): широта 42.10 долгота 63.70 высота над уровнем моря 250 м.

В архиве по умолчанию представлена погода в Учкудуке за последнюю неделю. Архивные данные за месяц целиком и за предыдущие месяцы, начиная с января 2011 года, Вы можете получить, выбрав интересующий диапазон дат из раскрывающегося списка и нажав кнопку "Ввод!".


*Определитесь, кто Вы:
робот инопланетянин человек

Внимание! Время в таблицах - всемирное. Для получения местного времени необходимо прибавить поправку, которая равна 5 ч.

Смотрите также архив погоды в соседних городах и на ближайших метеорологических станциях:

Погода в Зарафшане (Навоийская область, Узбекистан) (75 км)
Погода в Тамдыбулаке (Навоийская область, Узбекистан) (87 км)
Погода в Бузаубае (Хорезмская область, Узбекистан) (109 км)
Погода в Акбайтале (Навоийская область, Узбекистан) (128 км)
Погода в Джангельды (Бухарская область, Узбекистан) (142 км)
Погода в Айякагитме (Узбекистан) (171 км)
Погода в Машикудуке (Навоийская область, Узбекистан) (176 км)
Погода в Тюя-Муюне (Лебапский велаят, Туркменистан) (215 км)
Погода в Дарганате (Лебапский велаят, Туркменистан) (217 км)
Погода в Ширик-Рабате (Кызылординская область, Казахстан) (229 км)

Пояснения к столбцам:

Ветер - указаны скорость ветра в м/с - средняя за 10 мин, порывы в срок и между сроками (в фигурных скобках) и направление, откуда дует ветер: С - северный, СВ - северо-восточный, В - восточный, ЮВ - юго-восточный, Ю - южный, ЮЗ - юго-западный, З - западный, СЗ - северо-западный.
Видимость - горизонтальная дальность видимости в метрах или километрах. При видимости от 1 до 10 км при отсутствии осадков обычно наблюдается дымка, при ухудшении видимости до 1 км и менее - туман. В сухую погоду видимость может ухудшаться дымом, пылью или мглою.
Явления - указаны атмосферные явления, наблюдавшиеся в срок или в последний час перед сроком; фигурными скобками обозначены явления, наблюдавшиеся между сроками (за 1-3 часа до срока); квадратными скобками обозначены град или гололедные отложения с указанием их диаметра в мм.
Облачность - указаны через наклонную черту общая и нижняя облачность в баллах и высота нижней границы облаков в метрах; квадратными скобками обозначены формы облаков: Ci - перистые, Cs - перисто-слоистые, Cc - перисто-кучевые, Ac - высококучевые, As - высокослоистые, Sc - слоисто-кучевые, Ns - слоисто-дождевые, Cu - кучевые, Cb - кучево-дождевые. Подробнее классификацию облаков см. в Атласе облаков (PDF).
T - Температура воздуха - температура, измеренная на высоте 2 м над землей.
Td - Температура точки росы - температура, при понижении до которой содержащийся в воздухе водяной пар достигнет насыщения.
f - Относительная влажность воздуха - влажноcть воздуха, измеренная на высоте 2 м над землей.
Te - Эффективная температура - температура, которую ощущает одетый по сезону человек в тени. Характеристика душности погоды. При расчете учитывается влияние влажности воздуха и скорости ветра на теплоощущения человека.
Tes - Эффективная температура на солнце - температура, которую ощущает человек, с поправкой на солнечный нагрев. Характеристика знойности погоды. Зависит от высоты солнца над горизонтом, облачности и скорости ветра. Ночью, в пасмурную погоду, а также при ветре 12 м/с и более поправка равна нулю.
P - Атмосферное давление - приведенное к уровню моря атмосферное давление.
Po - Атмосферное давление - измеренное на уровне метеостанции атмосферное давление.
Tmin - Минимальная температура - минимум температуры воздуха на высоте 2 м над землей.
Tmax - Максимальная температура - максимум температуры воздуха на высоте 2 м над землей.
R - Количество осадков - Количество выпавших осадков за период времени, мм. При наведении курсора мыши на число - период времени, за который выпало указанное количество осадков.
R24 - Количество осадков - Количество выпавших осадков за 24 часа, мм.
S - Снежный покров - Высота снежного покрова, см. При наведении курсора мыши на число - состояние снежного покрова и степень покрытия местности в баллах.